STARLINK-3075 (49409 NORAD) Tracking and Keplerian Element Data

This shows tracking and keplerian element data for the satellite.

Feedback or suggestion? Click here.




ElementValue
Catalog49409
NameSTARLINK-3075
Epoch Orbit365
Epoch Day15.91668981
Epoch Year2022
RAAN185.3657
Inclination53.2173
Eccentricity0.0001512
Argument of Perigee58.2803
Mean Anonmoly140.9004
Mean Motion15.26055405
Decay Rate-0.00651659
L11 49409U 21104B 22015.91668981 -.00651659 00000+0 -26883-1 0 9993
L22 49409 53.2173 185.3657 0001512 58.2803 140.9004 15.26055405 3654

Live tracking and technical data element details for STARLINK-3075 (NORAD 49409). STARLINK-3075 can be tracked NOW for your location showing map with azimuth and elevation plus other details from your city location.

Track the satellite on the map from your city or location and see movement details for azimuth, elevation, latitude, longitude, range, height, and movement on the map or in text.







IsCatalogInMostPopularTable: catalog: 49409, numindb: 5
Update: records affected: 1



GetName: 49409 STARLINK-3075

Hit Count: updated at: Thu, 20 Jan 2022 16:20:45 GMT